Location: Sternwarte_Laufen
(47.9344°N, 12.9346°E)
Time: 04:23:25
(UTC+02:00)

ISS - Pass Details

Date: 11 July 2025
Orbit: 413 x 417 km, 51.6° (Epoch: 12 July)

Event Time Altitude Azimuth Distance (km) Brightness Sun altitude
Rises 21:57:19 0° 242° (WSW) 2,344 0.3 -7.4°
Reaches altitude 10° 21:59:24 10° 242° (WSW) 1,484 -0.7 -7.6°
Maximum altitude 22:02:44 81° 156° (SSE) 424 -3.8 -8.0°
Drops below altitude 10° 22:06:05 10° 68° (ENE) 1,492 -1.2 -8.4°
Sets 22:08:11 0° 67° (ENE) 2,358 -0.2 -8.6°
